TimePDT,TemperatureF,Dew PointF,Humidity,Sea Level PressureIn,VisibilityMPH,Wind Direction,Wind SpeedMPH,Gust SpeedMPH,PrecipitationIn,Events,Conditions,WindDirDegrees,DateUTC
12:03 AM,51.8,51.8,100,29.97,9.0,North,1.2,-,N/A,,Overcast,10,2012-11-03 07:03:00
12:08 AM,51.8,51.8,100,29.97,10.0,Calm,Calm,-,N/A,,Overcast,0,2012-11-03 07:08:00
12:13 AM,51.8,51.8,100,29.97,10.0,Calm,Calm,-,N/A,,Overcast,0,2012-11-03 07:13:00
12:33 AM,51.8,51.8,100,29.97,8.0,Calm,Calm,-,N/A,,Overcast,0,2012-11-03 07:33:00
12:35 AM,51.8,51.8,100,29.97,7.0,Variable,1.2,-,N/A,,Light Drizzle,0,2012-11-03 07:35:00
12:40 AM,51.8,51.8,100,29.97,6.0,North,2.3,-,N/A,,Light Drizzle,10,2012-11-03 07:40:00
12:49 AM,51.8,51.8,100,29.96,7.0,NNE,2.3,-,N/A,,Overcast,20,2012-11-03 07:49:00
12:58 AM,52.7,52.3,99,29.99,9.0,North,1.2,-,0.00,,Overcast,10,2012-11-03 07:58:00
1:03 AM,53.6,51.8,94,29.97,10.0,SW,1.2,-,N/A,,Overcast,230,2012-11-03 08:03:00
1:07 AM,51.8,51.8,100,29.97,8.0,WSW,1.2,-,N/A,,Light Drizzle,250,2012-11-03 08:07:00
1:18 AM,53.6,51.8,94,29.97,10.0,Calm,Calm,-,N/A,,Overcast,0,2012-11-03 08:18:00
1:29 AM,53.6,51.8,94,29.97,10.0,Calm,Calm,-,N/A,,Overcast,0,2012-11-03 08:29:00
1:49 AM,53.6,51.8,94,29.97,9.0,ENE,2.3,-,N/A,,Overcast,70,2012-11-03 08:49:00
1:55 AM,53.6,51.8,94,29.97,8.0,ENE,2.3,-,N/A,,Light Drizzle,60,2012-11-03 08:55:00
1:58 AM,52.9,52.5,99,29.99,8.0,ENE,2.3,-,0.00,,Light Drizzle,60,2012-11-03 08:58:00
2:06 AM,53.6,51.8,94,29.97,10.0,ENE,1.2,-,N/A,,Overcast,70,2012-11-03 09:06:00
2:11 AM,53.6,51.8,94,29.97,10.0,Calm,Calm,-,N/A,,Overcast,0,2012-11-03 09:11:00
2:33 AM,51.8,51.8,100,29.97,9.0,Calm,Calm,-,N/A,Rain,Light Rain,40,2012-11-03 09:33:00
2:43 AM,51.8,51.8,100,29.97,9.0,South,2.3,-,N/A,,Overcast,190,2012-11-03 09:43:00
2:48 AM,51.8,51.8,100,29.97,10.0,South,2.3,-,N/A,,Overcast,180,2012-11-03 09:48:00
2:58 AM,52.5,52.3,99,29.99,10.0,SSE,2.3,-,0.00,,Overcast,160,2012-11-03 09:58:00
3:00 AM,51.8,51.8,100,29.97,10.0,SSE,2.3,-,N/A,,Light Drizzle,160,2012-11-03 10:00:00
3:09 AM,51.8,51.8,100,29.97,10.0,ESE,2.3,-,N/A,,Overcast,120,2012-11-03 10:09:00
3:58 AM,52.5,52.3,99,29.99,10.0,ESE,3.5,-,0.01,,Overcast,110,2012-11-03 10:58:00
4:08 AM,53.6,51.8,94,29.98,10.0,ESE,2.3,-,N/A,,Overcast,120,2012-11-03 11:08:00
4:13 AM,53.6,51.8,94,29.98,10.0,SE,3.5,-,N/A,,Overcast,130,2012-11-03 11:13:00
4:58 AM,52.5,52.3,99,30.01,10.0,SSE,1.2,-,N/A,,Overcast,150,2012-11-03 11:58:00
5:58 AM,52.3,52.2,99,30.01,10.0,SE,1.2,-,N/A,,Overcast,140,2012-11-03 12:58:00
6:58 AM,52.3,52.0,99,30.01,10.0,SE,5.8,-,N/A,,Overcast,140,2012-11-03 13:58:00
7:08 AM,51.8,51.8,100,30.00,10.0,SE,5.8,-,N/A,,Overcast,140,2012-11-03 14:08:00
7:58 AM,52.3,52.2,99,30.03,10.0,SE,6.9,-,N/A,,Overcast,140,2012-11-03 14:58:00
8:43 AM,53.6,53.6,100,30.03,10.0,SSE,6.9,-,N/A,,Overcast,150,2012-11-03 15:43:00
8:48 AM,53.6,53.6,100,30.03,10.0,SE,8.1,-,N/A,,Overcast,140,2012-11-03 15:48:00
8:58 AM,53.4,53.1,99,30.04,10.0,SE,9.2,-,N/A,,Overcast,130,2012-11-03 15:58:00
9:58 AM,54.7,54.1,98,30.04,10.0,SE,5.8,-,N/A,,Overcast,140,2012-11-03 16:58:00
10:58 AM,56.3,54.1,92,30.06,10.0,SE,4.6,-,N/A,,Overcast,140,2012-11-03 17:58:00
11:58 AM,58.3,54.9,88,30.06,10.0,SSE,9.2,-,N/A,,Overcast,160,2012-11-03 18:58:00
12:58 PM,59.0,54.3,84,30.06,10.0,SSE,15.0,21.9,N/A,,Overcast,160,2012-11-03 19:58:00
1:13 PM,59.0,53.6,82,30.05,10.0,SSE,17.3,21.9,N/A,,Mostly Cloudy,160,2012-11-03 20:13:00
1:58 PM,60.4,53.6,78,30.06,10.0,SSE,13.8,19.6,N/A,,Mostly Cloudy,160,2012-11-03 20:58:00
2:53 PM,60.8,53.6,77,30.06,10.0,South,15.0,21.9,N/A,,Mostly Cloudy,170,2012-11-03 21:53:00
2:58 PM,60.8,52.9,75,30.07,10.0,South,13.8,21.9,N/A,,Overcast,170,2012-11-03 21:58:00
3:58 PM,59.5,53.8,81,30.10,10.0,South,15.0,20.7,N/A,,Overcast,180,2012-11-03 22:58:00
4:28 PM,59.0,55.4,88,30.11,10.0,South,8.1,-,N/A,,Overcast,180,2012-11-03 23:28:00
4:33 PM,59.0,55.4,88,30.11,10.0,SSE,10.4,-,N/A,,Overcast,160,2012-11-03 23:33:00
4:53 PM,57.2,55.4,94,30.11,10.0,SSE,8.1,-,N/A,,Overcast,150,2012-11-03 23:53:00
4:58 PM,57.9,55.0,90,30.12,10.0,SSE,9.2,-,N/A,,Overcast,150,2012-11-03 23:58:00
5:58 PM,57.6,54.9,91,30.14,10.0,SSE,5.8,-,N/A,,Overcast,160,2012-11-04 00:58:00
6:29 PM,57.2,55.4,94,30.15,9.0,South,3.5,-,N/A,,Light Drizzle,180,2012-11-04 01:29:00
6:34 PM,57.2,55.4,94,30.15,9.0,South,3.5,-,N/A,,Light Drizzle,190,2012-11-04 01:34:00
6:38 PM,57.2,55.4,94,30.15,10.0,South,3.5,-,N/A,,Overcast,190,2012-11-04 01:38:00
6:43 PM,57.2,55.4,94,30.15,10.0,SSW,3.5,-,N/A,,Overcast,200,2012-11-04 01:43:00
6:53 PM,57.2,55.4,94,30.15,10.0,South,2.3,-,N/A,,Overcast,170,2012-11-04 01:53:00
6:58 PM,56.8,55.2,94,30.17,10.0,SSE,2.3,-,0.00,,Overcast,160,2012-11-04 01:58:00
7:28 PM,57.2,55.4,94,30.16,10.0,SSE,3.5,-,N/A,,Overcast,160,2012-11-04 02:28:00
7:58 PM,56.3,55.0,96,30.17,10.0,SE,4.6,-,N/A,,Mostly Cloudy,130,2012-11-04 02:58:00
8:58 PM,55.6,54.9,97,30.15,10.0,South,4.6,-,N/A,,Overcast,170,2012-11-04 03:58:00
9:58 PM,54.9,54.3,98,30.17,10.0,SSE,4.6,-,N/A,,Overcast,160,2012-11-04 04:58:00
10:58 PM,55.6,54.0,94,30.17,10.0,ENE,1.2,-,N/A,,Overcast,60,2012-11-04 05:58:00
11:58 PM,54.5,54.1,99,30.19,10.0,SE,3.5,-,N/A,,Overcast,130,2012-11-04 06:58:00